When you browse on this site, cookies collect data to enhance your experience and personalize the content and advertising you see.
Visit our Privacy Policy to learn more. By continuing to use the site, you agree to this use of cookies and data.
  • In Italy
  • List of Countries
  • For 7 days
  • Water Temperature
  • Satellite Maps
  • Weather Map
  • Weather Widgets
  • user-avatar
    Login

    Hourly Weather Sosnovka

    Today, 18 January, Friday

    Time Temperature Precipitation Wind Pressure Humidity
    00:00 -10°C° 0 mm 6 mps 744 mmHg 89%
    01:00 -11°C° 0.2 mm 7 mps 743 mmHg 89%
    02:00 -11°C° 0.2 mm 7 mps 743 mmHg 90%
    03:00 -11°C° 0 mm 7 mps 742 mmHg 90%
    04:00 -9°C° 0.6 mm 7 mps 741 mmHg 90%
    05:00 -9°C° 0.6 mm 7 mps 741 mmHg 90%
    06:00 -8°C° 0.6 mm 7 mps 740 mmHg 89%
    07:00 -8°C° 0.2 mm 7 mps 740 mmHg 89%
    08:00 -7°C° 0.2 mm 7 mps 740 mmHg 88%
    09:00 -7°C° 0 mm 7 mps 740 mmHg 87%
    10:00 -7°C° 0 mm 7 mps 741 mmHg 87%
    11:00 -6°C° 0 mm 7 mps 741 mmHg 87%
    12:00 -4°C° 0 mm 6 mps 741 mmHg 87%
    13:00 -4°C° 0.1 mm 6 mps 742 mmHg 87%
    14:00 -4°C° 0.1 mm 6 mps 742 mmHg 87%
    15:00 -2°C° 0 mm 5 mps 743 mmHg 88%
    16:00 -2°C° 0 mm 5 mps 743 mmHg 88%
    17:00 -4°C° 0 mm 5 mps 744 mmHg 89%
    18:00 -4°C° 0 mm 5 mps 744 mmHg 90%
    19:00 -4°C° 0 mm 5 mps 744 mmHg 90%
    20:00 -2°C° 0 mm 5 mps 744 mmHg 90%
    21:00 -2°C° 0 mm 5 mps 744 mmHg 91%
    22:00 -4°C° 0 mm 5 mps 744 mmHg 91%
    23:00 -4°C° 0 mm 5 mps 744 mmHg 92%

    Tomorrow, 19 January, Saturday

    Time Temperature Precipitation Wind Pressure Humidity
    00:00 -4°C° 0 mm 5 mps 744 mmHg 92%
    01:00 -4°C° 0.1 mm 5 mps 743 mmHg 92%
    02:00 -2°C° 0.1 mm 5 mps 743 mmHg 92%
    03:00 -3°C° 0.1 mm 6 mps 742 mmHg 92%
    04:00 -3°C° 0.7 mm 6 mps 742 mmHg 90%
    05:00 -2°C° 0.7 mm 7 mps 741 mmHg 89%
    06:00 -2°C° 0.7 mm 7 mps 741 mmHg 88%
    07:00 -2°C° 0.2 mm 6 mps 741 mmHg 89%
    08:00 -2°C° 0.2 mm 6 mps 741 mmHg 89%
    09:00 -1°C° 0.2 mm 5 mps 742 mmHg 89%
    10:00 -1°C° 0.1 mm 5 mps 742 mmHg 90%
    11:00 -2°C° 0.1 mm 5 mps 743 mmHg 90%
    12:00 -4°C° 0.1 mm 5 mps 743 mmHg 91%
    13:00 -5°C° 0 mm 4 mps 744 mmHg 90%
    14:00 -7°C° 0 mm 3 mps 744 mmHg 90%
    15:00 -8°C° 0 mm 2 mps 745 mmHg 89%
    16:00 -9°C° 0 mm 2 mps 745 mmHg 90%
    17:00 -12°C° 0 mm 2 mps 746 mmHg 91%
    18:00 -11°C° 0 mm 1 mps 746 mmHg 91%
    19:00 -11°C° 0 mm 1 mps 746 mmHg 92%
    20:00 -14°C° 0 mm 2 mps 746 mmHg 93%
    21:00 -15°C° 0 mm 2 mps 747 mmHg 94%
    22:00 -15°C° 0 mm 2 mps 747 mmHg 95%
    23:00 -15°C° 0 mm 2 mps 747 mmHg 96%

    Day after tomorrow, 20 January, Sunday

    Time Temperature Precipitation Wind Pressure Humidity
    00:00 -16°C° 0 mm 2 mps 747 mmHg 98%
    01:00 -15°C° 0 mm 2 mps 748 mmHg 97%
    02:00 -14°C° 0 mm 2 mps 748 mmHg 97%
    03:00 -13°C° 0 mm 2 mps 748 mmHg 97%
    04:00 -13°C° 0 mm 2 mps 748 mmHg 97%
    05:00 -13°C° 0 mm 2 mps 748 mmHg 96%
    06:00 -13°C° 0 mm 2 mps 749 mmHg 96%
    07:00 -14°C° 0 mm 3 mps 749 mmHg 96%
    08:00 -13°C° 0 mm 3 mps 749 mmHg 95%
    09:00 -13°C° 0 mm 3 mps 749 mmHg 94%
    10:00 -13°C° 0 mm 3 mps 750 mmHg 93%
    11:00 -12°C° 0 mm 3 mps 750 mmHg 91%
    12:00 -12°C° 0 mm 4 mps 750 mmHg 89%
    13:00 -12°C° 0 mm 4 mps 750 mmHg 90%
    14:00 -12°C° 0 mm 3 mps 750 mmHg 92%
    15:00 -13°C° 0 mm 3 mps 750 mmHg 93%
    16:00 -14°C° 0 mm 4 mps 750 mmHg 93%
    17:00 -14°C° 0 mm 4 mps 749 mmHg 93%
    18:00 -14°C° 0 mm 4 mps 749 mmHg 93%
    19:00 -13°C° 0.1 mm 5 mps 749 mmHg 92%
    20:00 -13°C° 0.1 mm 5 mps 748 mmHg 92%
    21:00 -12°C° 0.1 mm 5 mps 748 mmHg 91%
    22:00 -12°C° 0.2 mm 5 mps 748 mmHg 91%
    23:00 -12°C° 0.2 mm 5 mps 748 mmHg 90%

    21 January, Monday

    Time Temperature Precipitation Wind Pressure Humidity
    00:00 -12°C° 0.2 mm 5 mps 747 mmHg 90%
    01:00 -12°C° 0.2 mm 5 mps 747 mmHg 90%
    02:00 -11°C° 0.2 mm 5 mps 747 mmHg 91%
    03:00 -11°C° 0.2 mm 5 mps 747 mmHg 91%
    04:00 -11°C° 0.2 mm 5 mps 747 mmHg 91%
    05:00 -11°C° 0.2 mm 5 mps 747 mmHg 90%
    06:00 -11°C° 0.2 mm 5 mps 747 mmHg 90%
    07:00 -11°C° 0.1 mm 5 mps 747 mmHg 90%
    08:00 -11°C° 0.1 mm 5 mps 747 mmHg 90%
    09:00 -11°C° 0.1 mm 5 mps 747 mmHg 90%
    10:00 -10°C° 0.1 mm 5 mps 747 mmHg 89%
    11:00 -10°C° 0.1 mm 5 mps 747 mmHg 89%
    12:00 -10°C° 0.1 mm 5 mps 747 mmHg 89%
    13:00 -9°C° 0.1 mm 4 mps 747 mmHg 88%
    14:00 -10°C° 0.1 mm 4 mps 747 mmHg 88%
    15:00 -9°C° 0.1 mm 3 mps 747 mmHg 87%
    16:00 -12°C° 0 mm 3 mps 747 mmHg 89%
    17:00 -13°C° 0 mm 3 mps 747 mmHg 91%
    18:00 -14°C° 0 mm 2 mps 747 mmHg 93%
    19:00 -15°C° 0 mm 2 mps 747 mmHg 94%
    20:00 -16°C° 0 mm 2 mps 748 mmHg 95%
    21:00 -17°C° 0 mm 2 mps 748 mmHg 96%
    22:00 -18°C° 0 mm 2 mps 748 mmHg 97%
    23:00 -19°C° 0 mm 2 mps 748 mmHg 97%

    22 January, Tuesday

    Time Temperature Precipitation Wind Pressure Humidity
    00:00 -20°C° 0 mm 2 mps 748 mmHg 98%
    01:00 -20°C° 0 mm 2 mps 749 mmHg 98%
    02:00 -20°C° 0 mm 2 mps 749 mmHg 98%
    03:00 -21°C° 0 mm 2 mps 749 mmHg 98%
    04:00 -21°C° 0 mm 2 mps 749 mmHg 98%
    05:00 -21°C° 0 mm 2 mps 749 mmHg 98%
    06:00 -21°C° 0 mm 2 mps 750 mmHg 98%
    07:00 -21°C° 0 mm 2 mps 750 mmHg 98%
    08:00 -23°C° 0 mm 2 mps 750 mmHg 98%
    09:00 -23°C° 0 mm 2 mps 751 mmHg 98%
    10:00 -21°C° 0 mm 2 mps 751 mmHg 97%
    11:00 -20°C° 0 mm 2 mps 751 mmHg 96%
    12:00 -20°C° 0 mm 2 mps 751 mmHg 95%
    13:00 -20°C° 0 mm 2 mps 752 mmHg 95%
    14:00 -21°C° 0 mm 2 mps 752 mmHg 95%
    15:00 -21°C° 0 mm 2 mps 752 mmHg 96%
    16:00 -23°C° 0 mm 2 mps 753 mmHg 96%
    17:00 -24°C° 0 mm 2 mps 753 mmHg 97%
    18:00 -26°C° 0 mm 2 mps 754 mmHg 98%
    19:00 -26°C° 0 mm 2 mps 754 mmHg 98%
    20:00 -27°C° 0 mm 2 mps 754 mmHg 99%
    21:00 -24°C° 0 mm 1 mps 755 mmHg 99%
    22:00 -24°C° 0 mm 1 mps 755 mmHg 99%
    23:00 -25°C° 0 mm 1 mps 755 mmHg 99%

    23 January, Wednesday

    Time Temperature Precipitation Wind Pressure Humidity
    00:00 -25°C° 0 mm 1 mps 755 mmHg 99%
    01:00 -25°C° 0 mm 1 mps 756 mmHg 99%
    02:00 -25°C° 0 mm 1 mps 756 mmHg 99%
    03:00 -25°C° 0 mm 1 mps 756 mmHg 99%
    04:00 -25°C° 0 mm 1 mps 756 mmHg 99%
    05:00 -25°C° 0 mm 1 mps 756 mmHg 99%
    06:00 -25°C° 0 mm 1 mps 756 mmHg 99%
    07:00 -28°C° 0 mm 2 mps 757 mmHg 99%
    08:00 -28°C° 0 mm 2 mps 757 mmHg 98%
    09:00 -28°C° 0 mm 2 mps 757 mmHg 98%
    10:00 -26°C° 0 mm 2 mps 757 mmHg 97%
    11:00 -24°C° 0 mm 2 mps 757 mmHg 97%
    12:00 -23°C° 0 mm 2 mps 757 mmHg 96%
    13:00 -21°C° 0 mm 2 mps 757 mmHg 96%
    14:00 -21°C° 0 mm 2 mps 757 mmHg 96%
    15:00 -21°C° 0 mm 2 mps 757 mmHg 96%
    16:00 -23°C° 0 mm 2 mps 757 mmHg 97%
    17:00 -24°C° 0 mm 2 mps 757 mmHg 98%
    18:00 -25°C° 0 mm 2 mps 757 mmHg 98%
    19:00 -25°C° 0 mm 2 mps 757 mmHg 98%
    20:00 -24°C° 0 mm 2 mps 757 mmHg 98%
    21:00 -24°C° 0 mm 2 mps 757 mmHg 98%
    22:00 -24°C° 0 mm 2 mps 757 mmHg 98%
    23:00 -23°C° 0 mm 2 mps 757 mmHg 98%
    Show more